Location: Cactus School
(34.5700°N, 118.0931°W)
Time: 00:35:11
(UTC-08:00)

OTV 5 (USA 277) - Pass Details

Date: 14 November 2017
Orbit: 404 x 417 km, 43.0° (Epoch: 07 September)

Event Time Altitude Azimuth Distance (km) Brightness Sun altitude
Exits shadow 05:18:58 15° 334° (NNW) 1,173 ? -13.9°
Maximum altitude 05:20:09 18° 1° (N) 1,062 ? -13.6°
Drops below altitude 10° 05:22:31 10° 48° (NE) 1,455 ? -13.2°
Sets 05:25:04 0° 68° (ENE) 2,315 ? -12.6°
